DateTimeUTC,F1_A11,F1_S11,BsB_S11,BsG_S11,BsR_S11,BbsB_S11,BbsG_S11,BbsR_S11,BaB_A11,BaG_A11,BaR_A11,Tu_S11,T_S11,Uu_S11,U_S11,P_S11,T1_A11
2021-10-04T11:00:00Z,00000200,21000000,,,,,,,0000.45,0000.22,0000.66,16.5,23.6,,00.0,0667.2,30.8
2021-10-04T11:01:00Z,00000200,21000000,,,,,,,0000.82,0000.57,0000.10,16.5,23.6,,00.0,0667.2,30.8
2021-10-04T11:02:00Z,00000200,21000000,,,,,,,0000.21,0000.23,0000.10,16.5,23.6,,00.0,0667.2,30.8
2021-10-04T11:03:00Z,00000200,61000000,,,,,,,0122.98,0112.88,0089.11,16.5,23.6,,00.0,0667.2,30.8
2021-10-04T11:04:00Z,00000200,41000000,0011.71,0008.58,0005.65,0002.29,0002.28,0001.32,0158.04,0145.83,0115.92,16.8,23.5,,00.0,0668.1,30.8
2021-10-04T11:05:00Z,00000200,01000000,0011.70,0008.48,0005.67,0002.76,0002.05,0001.47,0159.48,0147.01,0117.38,16.9,23.5,,00.0,0668.2,30.9
2021-10-04T11:06:00Z,00000200,01000000,0009.63,0007.06,0004.26,0002.77,0001.62,0001.31,0134.59,0124.68,0099.50,16.9,23.5,,00.0,0668.2,30.9
2021-10-04T11:07:00Z,00000200,01000000,0004.77,0003.55,0002.26,0001.33,0000.78,0000.77,0071.91,0066.54,0052.80,16.9,23.5,,00.0,0668.2,30.8
2021-10-04T11:08:00Z,00000200,01000000,0005.20,0003.73,0002.38,0000.96,0000.89,0000.76,0069.35,0063.78,0050.61,16.9,23.5,00.0,00.0,0668.2,30.8
2021-10-04T11:09:00Z,00000200,01000000,0007.01,0005.47,0003.48,0001.63,0001.28,0001.15,0095.79,0088.57,0070.52,16.9,23.4,,00.0,0668.2,30.8
2021-10-04T11:10:00Z,00000200,01000000,0011.33,0008.34,0004.82,0003.12,0002.17,0001.71,0162.13,0149.57,0119.14,16.9,23.4,,00.0,0668.2,30.8
2021-10-04T11:11:00Z,00000200,01000000,0010.04,0007.19,0004.11,0002.19,0001.70,0000.87,0133.83,0123.30,0097.80,16.8,23.4,00.0,00.0,0668.2,30.8
2021-10-04T11:12:00Z,00000200,01000000,0011.20,0008.37,0004.95,0002.53,0001.98,0002.07,0157.05,0144.96,0115.48,16.8,23.4,00.0,00.0,0668.2,30.8
2021-10-04T11:13:00Z,00000200,01000000,0007.16,0005.91,0003.99,0001.67,0001.43,0001.20,0115.32,0106.90,0085.46,16.7,23.3,00.0,00.0,0668.2,30.8
2021-10-04T11:14:00Z,00000200,01000000,0006.34,0004.86,0002.79,0001.46,0001.42,0001.06,0090.43,0083.08,0066.29,16.7,23.3,,00.0,0668.2,30.8
2021-10-04T11:15:00Z,00000200,01000000,0006.29,0005.40,0003.56,0002.17,0001.14,0001.17,0092.58,0085.58,0068.29,16.7,23.3,00.0,00.0,0668.2,30.8
2021-10-04T11:16:00Z,00000200,01000000,0008.29,0005.97,0003.99,0002.68,0001.34,0001.08,0114.39,0105.86,0084.82,16.7,23.3,00.0,00.0,0668.2,30.8
2021-10-04T11:17:00Z,00000200,01000000,0002.63,0001.83,0000.90,0000.85,0000.15,0000.55,0032.99,0030.64,0024.35,16.7,23.3,,00.0,0668.2,30.8
2021-10-04T11:18:00Z,00000200,01000000,0000.01,0000.49,-000.23,0000.17,0000.03,0000.07,0001.70,0002.02,0001.38,16.8,23.3,,00.0,0668.2,30.8
2021-10-04T11:19:00Z,00000200,01000000,0000.45,0000.52,-000.06,0000.63,-000.24,0000.06,0000.82,0000.50,0000.59,16.8,23.3,,00.0,0668.2,30.8
2021-10-04T11:20:00Z,00000200,01000000,0001.36,0000.22,-000.13,0000.46,-000.16,0000.11,0000.52,0000.59,0000.46,16.9,23.4,,00.0,0668.2,30.9
2021-10-04T11:21:00Z,00000200,01000000,0000.01,0000.16,-000.17,0000.19,-000.24,0000.06,0000.47,0000.30,0000.45,17.0,23.4,,00.0,0668.2,30.8
2021-10-04T11:22:00Z,00000200,01000000,0000.29,0000.35,-000.15,0000.42,0000.03,0000.08,0000.39,0000.36,0000.15,17.0,23.4,,00.0,0668.3,30.8
2021-10-04T11:23:00Z,00000200,01000000,-000.24,0000.14,0000.01,0000.20,-000.14,0000.25,0000.32,0000.42,0000.21,17.0,23.4,,00.0,0668.3,30.8
2021-10-04T11:24:00Z,00000200,01000000,0000.62,0000.29,0000.01,0000.06,-000.08,0000.09,0000.56,0000.01,-000.10,16.9,23.3,,00.0,0668.3,30.8
2021-10-04T11:25:00Z,00000200,01000000,0001.17,0000.07,0000.18,-000.09,-000.02,0000.25,0000.35,0000.38,0000.68,16.8,23.3,,00.0,0668.3,30.8
2021-10-04T11:26:00Z,00000200,01000000,0000.64,0000.44,-000.04,0000.21,-000.15,0000.17,-000.03,0000.57,-000.18,16.8,23.3,,00.0,0668.3,30.8
2021-10-04T11:27:00Z,00000200,01000000,0000.93,0000.50,0000.44,0000.51,-000.12,0000.05,0001.15,0001.08,0001.55,16.7,23.3,,00.0,0668.3,30.8
2021-10-04T11:28:00Z,00000200,01000000,0002.74,0002.14,0001.95,0000.73,0000.46,0000.54,0007.60,0007.39,0006.78,16.7,23.2,,00.0,0668.4,30.8
2021-10-04T11:29:00Z,00000200,01000000,0000.72,-000.18,0000.04,0000.00,-000.09,0000.05,0000.27,0000.53,0000.52,16.6,23.2,,00.0,0668.4,30.8
2021-10-04T11:30:00Z,00000200,01000000,0000.80,-000.07,-000.50,0000.39,0000.13,0000.05,0000.79,0000.44,0000.57,16.6,23.2,,00.0,0668.4,30.8
2021-10-04T11:31:00Z,00000200,01000000,0000.95,0000.32,-000.13,-000.19,-000.24,0000.27,0001.01,0000.87,0000.53,16.6,23.2,,00.0,0668.4,30.8
2021-10-04T11:32:00Z,00000200,01000000,0001.39,0000.00,0000.52,-000.13,0000.12,0000.26,0000.76,0000.87,0000.79,16.6,23.2,,00.0,0668.4,30.8
2021-10-04T11:33:00Z,00000200,01000000,0000.19,0000.12,0000.16,0000.64,0000.03,-000.10,0000.42,0000.25,0000.11,16.6,23.2,,00.0,0668.4,30.8
2021-10-04T11:34:00Z,00000200,01000000,0000.57,0000.26,-000.04,0000.43,0000.14,0000.15,0000.29,0000.34,0000.60,16.7,23.2,,00.0,0668.4,30.8
2021-10-04T11:35:00Z,00000200,01000000,0000.56,0000.25,-000.15,0000.22,-000.02,0000.23,0000.82,0000.80,0000.26,16.8,23.3,,00.0,0668.3,30.9
2021-10-04T11:36:00Z,00000200,01000000,0000.21,0000.28,0000.09,0000.42,0000.02,0000.16,0000.49,0000.77,0000.69,16.8,23.3,,00.0,0668.3,30.8
2021-10-04T11:37:00Z,00000200,01000000,0000.06,0000.11,-000.04,0000.66,-000.14,-000.03,0000.74,0000.24,-000.15,16.9,23.3,,00.0,0668.4,30.8
2021-10-04T11:38:00Z,00000200,01000000,-000.07,0000.18,-000.13,0000.46,-000.25,0000.03,-000.19,-000.11,0000.24,16.9,23.3,,00.0,0668.4,30.9
2021-10-04T11:39:00Z,00000200,01000000,0000.03,0000.29,0000.03,0000.56,-000.20,0000.12,0000.34,0000.19,0000.06,16.9,23.3,,00.0,0668.3,30.9
2021-10-04T11:40:00Z,00000200,01000000,0000.19,0000.36,0000.09,0000.11,0000.18,0000.02,0000.04,0000.40,0000.42,16.9,23.3,,00.0,0668.3,30.8
2021-10-04T11:41:00Z,00000200,01000000,0000.08,0000.19,-000.08,-000.16,0000.02,-000.19,0000.24,0000.01,-000.02,16.8,23.3,,00.0,0668.3,30.8
2021-10-04T11:42:00Z,00000200,01000000,0000.13,0000.17,0000.15,0000.76,-000.08,0000.08,0000.19,-000.01,0000.11,16.8,23.3,,00.0,0668.3,30.8
2021-10-04T11:43:00Z,00000200,01000000,0000.50,-000.03,-000.01,0000.73,0000.15,0000.11,0000.54,0000.64,0000.27,16.7,23.3,,00.0,0668.3,30.8
2021-10-04T11:44:00Z,00000200,01000000,0000.89,0000.28,0000.10,-000.01,0000.16,0000.14,0000.88,0001.01,0000.85,16.7,23.2,,00.0,0668.3,30.8
2021-10-04T11:45:00Z,00000200,01000000,0000.08,-000.09,0000.02,0000.14,-000.35,-000.15,0000.62,0000.47,0000.33,16.7,23.2,,00.0,0668.3,30.8
2021-10-04T11:46:00Z,00000200,01000000,0000.65,0000.36,0000.02,0000.34,0000.16,0000.44,0000.80,0000.86,0000.58,16.7,23.2,,00.0,0668.3,30.8
2021-10-04T11:47:00Z,00000200,01000000,-000.13,0000.69,-000.15,0000.54,0000.32,-000.13,0000.89,0000.59,0000.46,16.7,23.2,,00.0,0668.3,30.8
2021-10-04T11:48:00Z,00000200,01000000,0000.55,0000.49,-000.32,0000.41,0000.12,0000.01,0000.51,0000.14,0000.53,16.8,23.3,,00.0,0668.3,30.8
2021-10-04T11:49:00Z,00000200,01000000,-000.30,0000.47,0000.02,-000.04,0000.27,0000.04,0000.18,0000.50,0000.21,16.9,23.3,,00.0,0668.4,30.8
2021-10-04T11:50:00Z,00000200,01000000,0000.50,0000.38,-000.14,0000.54,0000.00,0000.03,0000.87,0000.70,0000.52,16.9,23.3,,00.0,0668.4,30.8
2021-10-04T11:51:00Z,00000200,01000000,0000.31,0000.23,0000.25,0000.96,0000.09,0000.28,0004.15,0003.93,0002.85,17.0,23.4,,00.0,0668.4,30.9
2021-10-04T11:52:00Z,00000200,01000000,0001.24,0000.93,0000.36,0000.75,0000.05,0000.28,0011.70,0010.75,0008.59,16.9,23.4,,00.0,0668.4,30.8
2021-10-04T11:53:00Z,00000200,01000000,-000.02,0000.33,0000.20,0000.44,-000.11,0000.13,0002.82,0002.73,0002.27,16.9,23.3,,00.0,0668.4,30.8
2021-10-04T11:54:00Z,00000200,01000000,0000.57,0000.51,-000.04,0000.29,0000.08,-000.05,0000.73,0000.33,0000.55,16.8,23.3,,00.0,0668.3,30.8
2021-10-04T11:55:00Z,00000200,01000000,0000.25,0000.19,-000.32,0000.19,0000.17,0000.13,-000.28,0000.33,-000.31,16.8,23.3,,00.0,0668.3,30.8
2021-10-04T11:56:00Z,00000200,01000000,-000.59,0000.52,0000.12,0000.61,0000.01,0000.46,0000.14,-000.44,-000.16,16.8,23.2,,00.0,0668.3,30.8
2021-10-04T11:57:00Z,00000200,41000000,,,,,,,0001.36,0001.49,0001.29,16.8,23.3,,00.0,0668.3,30.8
2021-10-04T11:58:00Z,00000200,61000000,,,,,,,-000.16,-000.40,-000.42,16.4,23.4,,00.0,0667.4,30.8
2021-10-04T11:59:00Z,00000200,21000000,,,,,,,-000.01,-000.00,-000.12,16.3,23.5,,00.0,0667.4,30.8
